STARLINK-3086 (49178 NORAD) Tracking and Keplerian Element Data

This shows tracking and keplerian element data for the satellite.

Feedback or suggestion? Click here.




ElementValue
Catalog49178
NameSTARLINK-3086
Epoch Orbit615
Epoch Day288.25002315
Epoch Year2021
RAAN39.289
Inclination70
Eccentricity0.0003785
Argument of Perigee281.0379
Mean Anonmoly319.8423
Mean Motion15.69748689
Decay Rate-3.29E-05
L11 49178U 21082BA 21288.25002315 -.00003290 00000-0 -25786-4 0 9999
L22 49178 70.0000 39.2890 0003785 281.0379 319.8423 15.69748689 6157

Live tracking and technical data element details for STARLINK-3086 (NORAD 49178). STARLINK-3086 can be tracked NOW for your location showing map with azimuth and elevation plus other details from your city location.

Track the satellite on the map from your city or location and see movement details for azimuth, elevation, latitude, longitude, range, height, and movement on the map or in text.







IsCatalogInMostPopularTable: catalog: 49178, numindb: 8
Update: records affected: 1



GetName: 49178 STARLINK-3086

Hit Count: updated at: Sun, 17 Oct 2021 09:02:31 GMT